Time,TemperatureF,DewpointF,PressureIn,WindDirection,WindDirectionDegrees,WindSpeedMPH,WindSpeedGustMPH,Humidity,HourlyPrecipIn,Conditions,Clouds,dailyrainin,SoftwareType,DateUTC
2013-04-25 00:02:00,43.9,29.6,30.30,SW,225,0.9,4.7,57,0.00,,---,0.00,VWS V14.01,2013-04-25 05:02:00,
2013-04-25 00:07:00,43.5,29.7,30.30,SSW,202,2.2,3.8,58,0.00,,---,0.00,VWS V14.01,2013-04-25 05:07:00,
2013-04-25 00:13:00,43.3,29.6,30.33,SSE,158,1.1,2.9,58,0.00,,---,0.00,VWS V14.01,2013-04-25 05:13:00,
2013-04-25 00:18:00,43.2,29.8,30.33,WSW,248,1.6,2.5,59,0.00,,---,0.00,VWS V14.01,2013-04-25 05:18:00,
2013-04-25 00:23:00,43.0,29.6,30.33,SSE,158,2.0,6.3,59,0.00,,---,0.00,VWS V14.01,2013-04-25 05:23:00,
2013-04-25 00:28:00,42.8,29.5,30.33,SSW,202,0.0,1.3,59,0.00,,---,0.00,VWS V14.01,2013-04-25 05:28:00,
2013-04-25 00:34:00,42.4,29.5,30.33,SSW,202,2.0,2.7,60,0.00,,---,0.00,VWS V14.01,2013-04-25 05:34:00,
2013-04-25 00:39:00,42.3,29.8,30.33,SW,225,2.0,2.0,61,0.00,,---,0.00,VWS V14.01,2013-04-25 05:39:00,
2013-04-25 00:44:00,41.7,28.9,30.33,West,270,0.0,1.6,60,0.00,,---,0.00,VWS V14.01,2013-04-25 05:44:00,
2013-04-25 00:49:00,41.5,29.1,30.33,SSW,202,1.1,1.1,61,0.00,,---,0.00,VWS V14.01,2013-04-25 05:49:00,
2013-04-25 00:55:00,41.4,29.7,30.33,SW,225,0.0,1.3,63,0.00,,---,0.00,VWS V14.01,2013-04-25 05:55:00,
2013-04-25 01:00:00,40.8,28.8,30.33,West,270,0.0,0.0,62,0.00,,---,0.00,VWS V14.01,2013-04-25 06:00:00,
2013-04-25 01:05:00,40.8,29.2,30.33,South,180,0.0,1.6,63,0.00,,---,0.00,VWS V14.01,2013-04-25 06:05:00,
2013-04-25 01:10:00,40.5,28.5,30.33,SSE,158,0.0,0.0,62,0.00,,---,0.00,VWS V14.01,2013-04-25 06:10:00,
2013-04-25 01:16:00,40.6,29.0,30.30,SSW,202,0.0,1.3,63,0.00,,---,0.00,VWS V14.01,2013-04-25 06:16:00,
2013-04-25 01:21:00,40.5,28.5,30.30,SW,225,0.0,1.3,62,0.00,,---,0.00,VWS V14.01,2013-04-25 06:21:00,
2013-04-25 01:26:00,40.5,28.5,30.30,SSW,202,0.0,0.0,62,0.00,,---,0.00,VWS V14.01,2013-04-25 06:26:00,
2013-04-25 01:31:00,40.5,28.5,30.33,SSW,202,0.0,2.2,62,0.00,,---,0.00,VWS V14.01,2013-04-25 06:31:00,
2013-04-25 01:37:00,40.1,29.7,30.33,South,180,0.0,0.0,66,0.00,,---,0.00,VWS V14.01,2013-04-25 06:37:00,
2013-04-25 01:42:00,39.9,29.1,30.30,SW,225,1.1,2.2,65,0.00,,---,0.00,VWS V14.01,2013-04-25 06:42:00,
2013-04-25 01:47:00,39.7,29.0,30.30,SSW,202,0.0,0.0,65,0.00,,---,0.00,VWS V14.01,2013-04-25 06:47:00,
2013-04-25 01:52:00,39.7,29.3,30.30,SSW,202,0.9,0.9,66,0.00,,---,0.00,VWS V14.01,2013-04-25 06:52:00,
2013-04-25 01:57:00,39.7,29.7,30.36,SSW,202,0.0,2.0,67,0.00,,---,0.00,VWS V14.01,2013-04-25 06:57:00,
2013-04-25 02:02:00,39.7,29.7,30.36,South,180,1.6,2.7,67,0.00,,---,0.00,VWS V14.01,2013-04-25 07:02:00,
2013-04-25 02:07:00,39.4,28.6,30.36,NW,315,0.0,1.1,65,0.00,,---,0.00,VWS V14.01,2013-04-25 07:07:00,
2013-04-25 02:12:00,39.2,28.4,30.33,South,180,0.0,0.0,65,0.00,,---,0.00,VWS V14.01,2013-04-25 07:12:00,
2013-04-25 02:18:00,38.8,28.1,30.33,SW,225,0.0,0.0,65,0.00,,---,0.00,VWS V14.01,2013-04-25 07:18:00,
2013-04-25 02:23:00,39.0,29.0,30.33,SSW,202,0.0,0.9,67,0.00,,---,0.00,VWS V14.01,2013-04-25 07:23:00,
2013-04-25 02:29:00,39.0,29.0,30.33,West,270,2.7,2.7,67,0.00,,---,0.00,VWS V14.01,2013-04-25 07:29:00,
2013-04-25 02:34:00,39.2,29.2,30.33,South,180,2.0,2.7,67,0.00,,---,0.00,VWS V14.01,2013-04-25 07:34:00,
2013-04-25 02:40:00,39.2,29.2,30.33,South,180,0.9,1.3,67,0.00,,---,0.00,VWS V14.01,2013-04-25 07:40:00,
2013-04-25 02:45:00,39.0,29.0,30.33,SSW,202,0.0,0.0,67,0.00,,---,0.00,VWS V14.01,2013-04-25 07:45:00,
2013-04-25 02:50:00,38.7,28.3,30.33,SW,225,0.0,1.3,66,0.00,,---,0.00,VWS V14.01,2013-04-25 07:50:00,
2013-04-25 02:55:00,38.5,28.1,30.33,South,180,0.0,0.0,66,0.00,,---,0.00,VWS V14.01,2013-04-25 07:55:00,
2013-04-25 03:00:00,38.1,27.8,30.33,WSW,248,0.0,0.0,66,0.00,,---,0.00,VWS V14.01,2013-04-25 08:00:00,
2013-04-25 03:06:00,38.1,28.5,30.33,SSW,202,0.0,0.0,68,0.00,,---,0.00,VWS V14.01,2013-04-25 08:06:00,
2013-04-25 03:12:00,38.1,28.9,30.33,SSW,202,0.0,0.0,69,0.00,,---,0.00,VWS V14.01,2013-04-25 08:12:00,
2013-04-25 03:18:00,37.6,28.0,30.33,WSW,248,0.0,0.0,68,0.00,,---,0.00,VWS V14.01,2013-04-25 08:18:00,
2013-04-25 03:23:00,37.6,28.0,30.33,SW,225,0.0,0.0,68,0.00,,---,0.00,VWS V14.01,2013-04-25 08:23:00,
2013-04-25 03:29:00,37.4,28.2,30.33,WSW,248,0.0,0.0,69,0.00,,---,0.00,VWS V14.01,2013-04-25 08:29:00,
2013-04-25 03:34:00,37.6,28.7,30.33,SW,225,0.0,2.2,70,0.00,,---,0.00,VWS V14.01,2013-04-25 08:34:00,
2013-04-25 03:39:00,37.6,28.7,30.33,West,270,0.0,2.7,70,0.00,,---,0.00,VWS V14.01,2013-04-25 08:39:00,
2013-04-25 03:44:00,37.4,28.5,30.33,WSW,248,0.0,0.0,70,0.00,,---,0.00,VWS V14.01,2013-04-25 08:44:00,
2013-04-25 03:50:00,37.2,28.4,30.33,WSW,248,0.0,2.0,70,0.00,,---,0.00,VWS V14.01,2013-04-25 08:50:00,
2013-04-25 03:55:00,37.9,30.1,30.33,SW,225,0.0,2.2,73,0.00,,---,0.00,VWS V14.01,2013-04-25 08:55:00,
2013-04-25 04:00:00,38.7,30.4,30.33,SW,225,2.7,2.7,72,0.00,,---,0.00,VWS V14.01,2013-04-25 09:00:00,
2013-04-25 04:05:00,38.8,30.3,30.33,WSW,248,1.3,1.6,71,0.00,,---,0.00,VWS V14.01,2013-04-25 09:05:00,
2013-04-25 04:11:00,39.0,30.1,30.33,SW,225,0.0,2.9,70,0.00,,---,0.00,VWS V14.01,2013-04-25 09:11:00,
2013-04-25 04:16:00,38.8,29.5,30.33,WSW,248,0.0,1.3,69,0.00,,---,0.00,VWS V14.01,2013-04-25 09:16:00,
2013-04-25 04:21:00,39.0,29.7,30.33,SSW,202,1.3,1.3,69,0.00,,---,0.00,VWS V14.01,2013-04-25 09:21:00,
2013-04-25 04:26:00,39.2,29.9,30.33,SSW,202,0.0,0.9,69,0.00,,---,0.00,VWS V14.01,2013-04-25 09:26:00,
2013-04-25 04:32:00,39.2,29.5,30.33,SSW,202,0.0,0.0,68,0.00,,---,0.00,VWS V14.01,2013-04-25 09:32:00,
2013-04-25 04:37:00,38.7,29.0,30.33,South,180,0.0,0.0,68,0.00,,---,0.00,VWS V14.01,2013-04-25 09:37:00,
2013-04-25 04:42:00,38.1,28.5,30.33,South,180,0.0,0.0,68,0.00,,---,0.00,VWS V14.01,2013-04-25 09:42:00,
2013-04-25 04:48:00,37.6,28.0,30.33,South,180,0.0,0.0,68,0.00,,---,0.00,VWS V14.01,2013-04-25 09:48:00,
2013-04-25 04:53:00,36.9,27.7,30.33,South,180,0.0,0.0,69,0.00,,---,0.00,VWS V14.01,2013-04-25 09:53:00,
2013-04-25 04:58:00,36.5,27.3,30.33,South,180,0.0,0.0,69,0.00,,---,0.00,VWS V14.01,2013-04-25 09:58:00,
2013-04-25 05:03:00,36.1,27.3,30.33,South,180,0.0,0.0,70,0.00,,---,0.00,VWS V14.01,2013-04-25 10:03:00,
2013-04-25 05:08:00,35.6,26.8,30.33,South,180,0.0,0.0,70,0.00,,---,0.00,VWS V14.01,2013-04-25 10:08:00,
2013-04-25 05:14:00,35.2,27.1,30.33,South,180,0.0,0.0,72,0.00,,---,0.00,VWS V14.01,2013-04-25 10:14:00,
2013-04-25 05:19:00,34.9,27.1,30.33,South,180,0.0,0.0,73,0.00,,---,0.00,VWS V14.01,2013-04-25 10:19:00,
2013-04-25 05:24:00,34.3,26.9,30.33,South,180,0.0,0.0,74,0.00,,---,0.00,VWS V14.01,2013-04-25 10:24:00,
2013-04-25 05:30:00,33.8,27.4,30.33,South,180,0.0,0.0,77,0.00,,---,0.00,VWS V14.01,2013-04-25 10:30:00,
2013-04-25 05:35:00,33.6,27.2,30.33,South,180,0.0,0.0,77,0.00,,---,0.00,VWS V14.01,2013-04-25 10:35:00,
2013-04-25 05:40:00,33.3,26.5,30.33,South,180,0.0,0.0,76,0.00,,---,0.00,VWS V14.01,2013-04-25 10:40:00,
2013-04-25 05:45:00,33.4,26.7,30.33,South,180,0.0,0.0,76,0.00,,---,0.00,VWS V14.01,2013-04-25 10:45:00,
2013-04-25 05:51:00,33.6,26.9,30.33,South,180,0.0,0.0,76,0.00,,---,0.00,VWS V14.01,2013-04-25 10:51:00,
2013-04-25 05:57:00,33.6,27.5,30.33,South,180,0.0,0.0,78,0.00,,---,0.00,VWS V14.01,2013-04-25 10:57:00,
2013-04-25 06:02:00,33.3,27.1,30.33,South,180,0.0,0.0,78,0.00,,---,0.00,VWS V14.01,2013-04-25 11:02:00,
2013-04-25 06:07:00,32.9,26.8,30.33,South,180,0.0,0.0,78,0.00,,---,0.00,VWS V14.01,2013-04-25 11:07:00,
2013-04-25 06:12:00,32.4,26.6,30.33,South,180,0.0,0.0,79,0.00,,---,0.00,VWS V14.01,2013-04-25 11:12:00,
2013-04-25 06:17:00,32.4,26.6,30.33,South,180,0.0,0.0,79,0.00,,---,0.00,VWS V14.01,2013-04-25 11:17:00,
2013-04-25 06:22:00,32.2,26.4,30.33,South,180,0.0,0.0,79,0.00,,---,0.00,VWS V14.01,2013-04-25 11:22:00,
2013-04-25 06:27:00,32.4,26.9,30.33,South,180,0.0,0.0,80,0.00,,---,0.00,VWS V14.01,2013-04-25 11:27:00,
2013-04-25 06:32:00,32.2,26.7,30.33,South,180,0.0,0.0,80,0.00,,---,0.00,VWS V14.01,2013-04-25 11:32:00,
2013-04-25 06:37:00,32.2,26.4,30.33,South,180,0.0,0.0,79,0.00,,---,0.00,VWS V14.01,2013-04-25 11:37:00,
2013-04-25 06:42:00,32.7,27.8,30.30,South,180,0.0,0.0,82,0.00,,---,0.00,VWS V14.01,2013-04-25 11:42:00,
2013-04-25 06:47:00,33.3,29.8,30.30,SSW,202,0.0,0.0,87,0.00,,---,0.00,VWS V14.01,2013-04-25 11:47:00,
2013-04-25 06:52:00,33.1,29.6,30.30,SSW,202,0.0,0.0,87,0.00,,---,0.00,VWS V14.01,2013-04-25 11:52:00,
2013-04-25 06:57:00,33.3,29.5,30.30,SSW,202,0.0,0.0,86,0.00,,---,0.00,VWS V14.01,2013-04-25 11:57:00,
2013-04-25 07:02:00,33.6,29.9,30.30,SSW,202,0.0,0.0,86,0.00,,---,0.00,VWS V14.01,2013-04-25 12:02:00,
2013-04-25 07:07:00,34.0,30.0,30.30,SSW,202,0.0,0.0,85,0.00,,---,0.00,VWS V14.01,2013-04-25 12:07:00,
2013-04-25 07:12:00,34.7,31.0,30.33,SSW,202,0.0,0.0,86,0.00,,---,0.00,VWS V14.01,2013-04-25 12:12:00,
2013-04-25 07:17:00,35.6,32.7,30.33,South,180,0.0,0.9,89,0.00,,---,0.00,VWS V14.01,2013-04-25 12:17:00,
2013-04-25 07:22:00,36.3,33.4,30.33,SSW,202,1.3,1.3,89,0.00,,---,0.00,VWS V14.01,2013-04-25 12:22:00,
2013-04-25 07:27:00,37.0,34.1,30.33,SSW,202,0.0,0.0,89,0.00,,---,0.00,VWS V14.01,2013-04-25 12:27:00,
2013-04-25 07:32:00,38.1,34.6,30.33,South,180,0.0,0.0,87,0.00,,---,0.00,VWS V14.01,2013-04-25 12:32:00,
2013-04-25 07:37:00,38.8,35.0,30.33,SSW,202,0.0,0.0,86,0.00,,---,0.00,VWS V14.01,2013-04-25 12:37:00,
2013-04-25 07:42:00,39.7,34.7,30.36,South,180,0.9,1.1,82,0.00,,---,0.00,VWS V14.01,2013-04-25 12:42:00,
2013-04-25 07:47:00,40.8,34.5,30.36,SSE,158,0.0,0.0,78,0.00,,---,0.00,VWS V14.01,2013-04-25 12:47:00,
2013-04-25 07:52:00,41.5,34.5,30.36,South,180,1.1,1.3,76,0.00,,---,0.00,VWS V14.01,2013-04-25 12:52:00,
2013-04-25 07:57:00,42.3,33.9,30.36,SSE,158,1.1,1.6,72,0.00,,---,0.00,VWS V14.01,2013-04-25 12:57:00,
2013-04-25 08:02:00,43.2,34.0,30.36,South,180,0.0,0.9,70,0.00,,---,0.00,VWS V14.01,2013-04-25 13:02:00,
2013-04-25 08:07:00,44.4,35.3,30.36,South,180,0.0,0.0,70,0.00,,---,0.00,VWS V14.01,2013-04-25 13:07:00,
2013-04-25 08:12:00,46.0,36.5,30.36,South,180,0.0,0.0,69,0.00,,---,0.00,VWS V14.01,2013-04-25 13:12:00,
2013-04-25 08:17:00,46.6,35.5,30.36,SSE,158,2.0,2.0,65,0.00,,---,0.00,VWS V14.01,2013-04-25 13:17:00,
2013-04-25 08:22:00,47.3,35.0,30.36,SSE,158,0.0,0.0,62,0.00,,---,0.00,VWS V14.01,2013-04-25 13:22:00,
2013-04-25 08:27:00,48.6,35.3,30.36,SSE,158,0.0,0.0,60,0.00,,---,0.00,VWS V14.01,2013-04-25 13:27:00,
2013-04-25 08:32:00,49.3,35.1,30.36,South,180,0.0,0.0,58,0.00,,---,0.00,VWS V14.01,2013-04-25 13:32:00,
2013-04-25 08:37:00,50.4,35.3,30.36,South,180,0.0,0.0,56,0.00,,---,0.00,VWS V14.01,2013-04-25 13:37:00,
2013-04-25 08:42:00,50.7,34.2,30.36,SSW,202,0.0,0.0,53,0.00,,---,0.00,VWS V14.01,2013-04-25 13:42:00,
2013-04-25 08:47:00,51.6,34.1,30.36,SSW,202,1.6,2.5,51,0.00,,---,0.00,VWS V14.01,2013-04-25 13:47:00,
2013-04-25 08:52:00,52.0,33.9,30.36,SSE,158,1.1,2.9,50,0.00,,---,0.00,VWS V14.01,2013-04-25 13:52:00,
2013-04-25 08:57:00,52.3,33.8,30.36,SW,225,1.6,2.7,49,0.00,,---,0.00,VWS V14.01,2013-04-25 13:57:00,
2013-04-25 09:02:00,53.2,34.6,30.36,South,180,0.0,0.0,49,0.00,,---,0.00,VWS V14.01,2013-04-25 14:02:00,
2013-04-25 09:07:00,55.2,36.4,30.36,SSE,158,2.5,2.5,49,0.00,,---,0.00,VWS V14.01,2013-04-25 14:07:00,
2013-04-25 09:12:00,55.4,35.5,30.33,NW,315,0.0,0.0,47,0.00,,---,0.00,VWS V14.01,2013-04-25 14:12:00,
2013-04-25 09:17:00,57.0,37.0,30.33,NW,315,0.0,0.0,47,0.00,,---,0.00,VWS V14.01,2013-04-25 14:17:00,
2013-04-25 09:23:00,57.2,36.1,30.33,WNW,292,0.0,2.5,45,0.00,,---,0.00,VWS V14.01,2013-04-25 14:23:00,
2013-04-25 09:28:00,58.5,37.2,30.33,West,270,0.0,0.9,45,0.00,,---,0.00,VWS V14.01,2013-04-25 14:28:00,
2013-04-25 09:33:00,59.2,37.9,30.33,SSW,202,2.0,2.0,45,0.00,,---,0.00,VWS V14.01,2013-04-25 14:33:00,
2013-04-25 09:38:00,59.5,37.6,30.33,South,180,2.0,2.7,44,0.00,,---,0.00,VWS V14.01,2013-04-25 14:38:00,
2013-04-25 09:43:00,60.1,38.1,30.33,West,270,3.4,3.4,44,0.00,,---,0.00,VWS V14.01,2013-04-25 14:43:00,
2013-04-25 09:48:00,60.8,37.0,30.33,WSW,248,0.0,7.6,41,0.00,,---,0.00,VWS V14.01,2013-04-25 14:48:00,
2013-04-25 09:53:00,60.8,35.1,30.33,West,270,4.3,7.8,38,0.00,,---,0.00,VWS V14.01,2013-04-25 14:53:00,
2013-04-25 09:58:00,61.2,35.4,30.33,West,270,4.7,6.5,38,0.00,,---,0.00,VWS V14.01,2013-04-25 14:58:00,
2013-04-25 10:03:00,61.0,35.2,30.33,SW,225,3.1,3.4,38,0.00,,---,0.00,VWS V14.01,2013-04-25 15:03:00,
2013-04-25 10:08:00,61.0,35.2,30.33,SW,225,4.0,4.0,38,0.00,,---,0.00,VWS V14.01,2013-04-25 15:08:00,
2013-04-25 10:13:00,61.0,35.2,30.33,West,270,2.9,3.1,38,0.00,,---,0.00,VWS V14.01,2013-04-25 15:13:00,
2013-04-25 10:18:00,63.3,36.6,30.33,SW,225,2.2,4.7,37,0.00,,---,0.00,VWS V14.01,2013-04-25 15:18:00,
2013-04-25 10:23:00,63.7,37.0,30.33,South,180,2.9,2.9,37,0.00,,---,0.00,VWS V14.01,2013-04-25 15:23:00,
2013-04-25 10:28:00,63.5,36.1,30.33,SSW,202,2.5,3.1,36,0.00,,---,0.00,VWS V14.01,2013-04-25 15:28:00,
2013-04-25 10:33:00,64.6,37.0,30.33,West,270,2.5,2.5,36,0.00,,---,0.00,VWS V14.01,2013-04-25 15:33:00,
2013-04-25 10:38:00,65.5,37.8,30.33,SW,225,1.1,2.0,36,0.00,,---,0.00,VWS V14.01,2013-04-25 15:38:00,
2013-04-25 10:43:00,64.9,37.4,30.33,SSE,158,1.3,4.3,36,0.00,,---,0.00,VWS V14.01,2013-04-25 15:43:00,
2013-04-25 10:48:00,65.5,37.8,30.33,SW,225,4.9,4.9,36,0.00,,---,0.00,VWS V14.01,2013-04-25 15:48:00,
2013-04-25 10:53:00,66.0,37.6,30.33,WNW,292,4.3,4.5,35,0.00,,---,0.00,VWS V14.01,2013-04-25 15:53:00,
2013-04-25 10:58:00,65.8,37.5,30.33,South,180,3.6,3.6,35,0.00,,---,0.00,VWS V14.01,2013-04-25 15:58:00,
2013-04-25 11:04:00,65.3,37.7,30.33,SSE,158,2.7,4.3,36,0.00,,---,0.00,VWS V14.01,2013-04-25 16:04:00,
2013-04-25 11:10:00,66.4,37.9,30.33,WSW,248,3.4,3.4,35,0.00,,---,0.00,VWS V14.01,2013-04-25 16:10:00,
2013-04-25 11:15:00,66.2,37.0,30.33,SSW,202,5.6,5.8,34,0.00,,---,0.00,VWS V14.01,2013-04-25 16:15:00,
2013-04-25 11:20:00,67.3,38.7,30.33,SSW,202,2.2,3.4,35,0.00,,---,0.00,VWS V14.01,2013-04-25 16:20:00,
2013-04-25 11:25:00,67.1,37.8,30.33,SW,225,3.1,4.7,34,0.00,,---,0.00,VWS V14.01,2013-04-25 16:25:00,
2013-04-25 11:30:00,66.9,37.7,30.33,WSW,248,0.0,3.4,34,0.00,,---,0.00,VWS V14.01,2013-04-25 16:30:00,
2013-04-25 11:35:00,68.5,39.8,30.33,SW,225,5.6,5.6,35,0.00,,---,0.00,VWS V14.01,2013-04-25 16:35:00,
2013-04-25 11:41:00,67.8,39.2,30.33,SSW,202,8.1,8.1,35,0.00,,---,0.00,VWS V14.01,2013-04-25 16:41:00,
2013-04-25 11:46:00,67.5,38.9,30.33,SSE,158,3.4,3.6,35,0.00,,---,0.00,VWS V14.01,2013-04-25 16:46:00,
2013-04-25 11:51:00,67.1,37.8,30.33,South,180,6.3,7.4,34,0.00,,---,0.00,VWS V14.01,2013-04-25 16:51:00,
2013-04-25 11:57:00,68.0,37.8,30.33,West,270,6.3,7.6,33,0.00,,---,0.00,VWS V14.01,2013-04-25 16:57:00,
2013-04-25 12:02:00,68.9,38.6,30.33,SW,225,9.8,9.8,33,0.00,,---,0.00,VWS V14.01,2013-04-25 17:02:00,
2013-04-25 12:07:00,68.2,38.0,30.33,South,180,2.9,9.4,33,0.00,,---,0.00,VWS V14.01,2013-04-25 17:07:00,
2013-04-25 12:12:00,68.7,38.5,30.33,South,180,2.9,5.4,33,0.00,,---,0.00,VWS V14.01,2013-04-25 17:12:00,
2013-04-25 12:17:00,69.4,38.3,30.33,South,180,6.0,6.7,32,0.00,,---,0.00,VWS V14.01,2013-04-25 17:17:00,
2013-04-25 12:22:00,68.9,37.8,30.33,SSW,202,4.3,7.8,32,0.00,,---,0.00,VWS V14.01,2013-04-25 17:22:00,
2013-04-25 12:27:00,69.1,38.0,30.33,South,180,7.2,7.2,32,0.00,,---,0.00,VWS V14.01,2013-04-25 17:27:00,
2013-04-25 12:32:00,68.4,37.4,30.33,SSW,202,7.4,7.4,32,0.00,,---,0.00,VWS V14.01,2013-04-25 17:32:00,
2013-04-25 12:37:00,68.4,37.4,30.33,SSW,202,6.0,6.5,32,0.00,,---,0.00,VWS V14.01,2013-04-25 17:37:00,
2013-04-25 12:43:00,68.5,37.5,30.33,SW,225,7.6,7.6,32,0.00,,---,0.00,VWS V14.01,2013-04-25 17:43:00,
2013-04-25 12:48:00,68.5,35.0,30.33,South,180,10.3,10.3,29,0.00,,---,0.00,VWS V14.01,2013-04-25 17:48:00,
2013-04-25 12:53:00,68.0,32.8,30.33,SSW,202,4.0,12.5,27,0.00,,---,0.00,VWS V14.01,2013-04-25 17:53:00,
2013-04-25 12:58:00,68.2,33.0,30.33,South,180,7.4,7.4,27,0.00,,---,0.00,VWS V14.01,2013-04-25 17:58:00,
2013-04-25 13:03:00,68.9,35.4,30.33,West,270,2.9,3.8,29,0.00,,---,0.00,VWS V14.01,2013-04-25 18:03:00,
2013-04-25 13:08:00,69.8,35.3,30.33,SSE,158,5.4,6.0,28,0.00,,---,0.00,VWS V14.01,2013-04-25 18:08:00,
2013-04-25 13:13:00,69.8,34.3,30.33,SW,225,3.6,12.5,27,0.00,,---,0.00,VWS V14.01,2013-04-25 18:13:00,
2013-04-25 13:18:00,69.6,34.2,30.33,WSW,248,3.1,6.0,27,0.00,,---,0.00,VWS V14.01,2013-04-25 18:18:00,
2013-04-25 13:23:00,69.8,34.3,30.33,SSE,158,8.7,8.7,27,0.00,,---,0.00,VWS V14.01,2013-04-25 18:23:00,
2013-04-25 13:28:00,69.8,34.3,30.30,SSW,202,3.6,8.1,27,0.00,,---,0.00,VWS V14.01,2013-04-25 18:28:00,
2013-04-25 13:33:00,69.8,35.3,30.30,West,270,5.4,6.9,28,0.00,,---,0.00,VWS V14.01,2013-04-25 18:33:00,
2013-04-25 13:38:00,69.6,35.1,30.30,SSW,202,2.9,6.5,28,0.00,,---,0.00,VWS V14.01,2013-04-25 18:38:00,
2013-04-25 13:43:00,70.0,32.6,30.27,South,180,8.7,12.5,25,0.00,,---,0.00,VWS V14.01,2013-04-25 18:43:00,
2013-04-25 13:48:00,70.0,33.5,30.27,South,180,2.7,11.0,26,0.00,,---,0.00,VWS V14.01,2013-04-25 18:48:00,
2013-04-25 13:53:00,70.3,35.7,30.27,SSW,202,1.1,3.6,28,0.00,,---,0.00,VWS V14.01,2013-04-25 18:53:00,
2013-04-25 13:58:00,70.3,35.7,30.27,South,180,2.5,7.8,28,0.00,,---,0.00,VWS V14.01,2013-04-25 18:58:00,
2013-04-25 14:03:00,71.1,35.4,30.27,South,180,5.8,7.6,27,0.00,,---,0.00,VWS V14.01,2013-04-25 19:03:00,
2013-04-25 14:08:00,70.0,33.5,30.27,SSW,202,8.7,10.5,26,0.00,,---,0.00,VWS V14.01,2013-04-25 19:08:00,
2013-04-25 14:13:00,70.0,34.5,30.27,South,180,5.6,11.9,27,0.00,,---,0.00,VWS V14.01,2013-04-25 19:13:00,
2013-04-25 14:18:00,71.4,38.4,30.27,South,180,4.7,6.3,30,0.00,,---,0.00,VWS V14.01,2013-04-25 19:18:00,
2013-04-25 14:23:00,71.1,36.3,30.27,SSW,202,5.6,12.5,28,0.00,,---,0.00,VWS V14.01,2013-04-25 19:23:00,
2013-04-25 14:28:00,70.0,35.4,30.27,SSE,158,3.1,10.3,28,0.00,,---,0.00,VWS V14.01,2013-04-25 19:28:00,
2013-04-25 14:33:00,70.9,37.1,30.27,South,180,4.3,8.7,29,0.00,,---,0.00,VWS V14.01,2013-04-25 19:33:00,
2013-04-25 14:38:00,70.9,35.3,30.27,South,180,7.8,13.2,27,0.00,,---,0.00,VWS V14.01,2013-04-25 19:38:00,
2013-04-25 14:43:00,71.6,37.7,30.24,SSE,158,3.6,4.3,29,0.00,,---,0.00,VWS V14.01,2013-04-25 19:43:00,
2013-04-25 14:48:00,72.7,38.6,30.24,SSE,158,4.0,4.3,29,0.00,,---,0.00,VWS V14.01,2013-04-25 19:48:00,
2013-04-25 14:53:00,72.1,35.4,30.24,SSW,202,7.2,14.5,26,0.00,,---,0.00,VWS V14.01,2013-04-25 19:53:00,
2013-04-25 14:58:00,71.2,35.6,30.27,SSW,202,5.4,10.1,27,0.00,,---,0.00,VWS V14.01,2013-04-25 19:58:00,
2013-04-25 15:03:00,71.2,34.6,30.27,SSW,202,8.5,8.5,26,0.00,,---,0.00,VWS V14.01,2013-04-25 20:03:00,
2013-04-25 15:08:00,71.2,33.6,30.27,SSW,202,5.6,7.8,25,0.00,,---,0.00,VWS V14.01,2013-04-25 20:08:00,
2013-04-25 15:13:00,71.1,33.5,30.27,SSW,202,6.0,10.3,25,0.00,,---,0.00,VWS V14.01,2013-04-25 20:13:00,
2013-04-25 15:18:00,70.7,34.2,30.27,South,180,8.5,10.1,26,0.00,,---,0.00,VWS V14.01,2013-04-25 20:18:00,
2013-04-25 15:23:00,70.2,34.7,30.27,South,180,6.5,7.8,27,0.00,,---,0.00,VWS V14.01,2013-04-25 20:23:00,
2013-04-25 15:28:00,70.5,34.0,30.27,SE,135,5.4,12.8,26,0.00,,---,0.00,VWS V14.01,2013-04-25 20:28:00,
2013-04-25 15:33:00,70.7,35.1,30.27,SSW,202,6.3,12.5,27,0.00,,---,0.00,VWS V14.01,2013-04-25 20:33:00,
2013-04-25 15:38:00,70.3,34.8,30.27,SSW,202,6.5,10.7,27,0.00,,---,0.00,VWS V14.01,2013-04-25 20:38:00,
2013-04-25 15:43:00,70.7,35.1,30.27,WSW,248,10.1,10.1,27,0.00,,---,0.00,VWS V14.01,2013-04-25 20:43:00,
2013-04-25 15:48:00,70.3,34.8,30.27,SSW,202,6.0,7.2,27,0.00,,---,0.00,VWS V14.01,2013-04-25 20:48:00,
2013-04-25 15:53:00,70.2,36.5,30.27,South,180,3.8,5.6,29,0.00,,---,0.00,VWS V14.01,2013-04-25 20:53:00,
2013-04-25 15:58:00,70.7,36.9,30.27,SSE,158,4.9,10.7,29,0.00,,---,0.00,VWS V14.01,2013-04-25 20:58:00,
2013-04-25 16:03:00,70.5,36.8,30.27,South,180,3.1,7.2,29,0.00,,---,0.00,VWS V14.01,2013-04-25 21:03:00,
2013-04-25 16:08:00,69.6,36.0,30.27,SSW,202,9.6,14.3,29,0.00,,---,0.00,VWS V14.01,2013-04-25 21:08:00,
2013-04-25 16:13:00,69.1,35.5,30.24,SSW,202,4.9,6.5,29,0.00,,---,0.00,VWS V14.01,2013-04-25 21:13:00,
2013-04-25 16:18:00,69.3,36.5,30.24,SSW,202,11.0,11.0,30,0.00,,---,0.00,VWS V14.01,2013-04-25 21:18:00,
2013-04-25 16:23:00,68.7,36.1,30.24,SSW,202,9.8,9.8,30,0.00,,---,0.00,VWS V14.01,2013-04-25 21:23:00,
2013-04-25 16:28:00,68.4,35.8,30.21,SE,135,4.3,5.8,30,0.00,,---,0.00,VWS V14.01,2013-04-25 21:28:00,
2013-04-25 16:33:00,68.0,34.6,30.21,South,180,7.8,14.1,29,0.00,,---,0.00,VWS V14.01,2013-04-25 21:33:00,
2013-04-25 16:38:00,68.0,33.7,30.21,SSW,202,10.1,10.1,28,0.00,,---,0.00,VWS V14.01,2013-04-25 21:38:00,
2013-04-25 16:43:00,68.2,33.9,30.21,South,180,10.7,10.7,28,0.00,,---,0.00,VWS V14.01,2013-04-25 21:43:00,
2013-04-25 16:48:00,68.0,34.6,30.21,SSW,202,4.3,6.0,29,0.00,,---,0.00,VWS V14.01,2013-04-25 21:48:00,
2013-04-25 16:53:00,67.8,35.3,30.21,South,180,8.7,10.1,30,0.00,,---,0.00,VWS V14.01,2013-04-25 21:53:00,
2013-04-25 16:58:00,67.6,36.0,30.21,South,180,7.6,7.6,31,0.00,,---,0.00,VWS V14.01,2013-04-25 21:58:00,
2013-04-25 17:03:00,67.5,36.6,30.21,SSW,202,2.5,5.6,32,0.00,,---,0.00,VWS V14.01,2013-04-25 22:03:00,
2013-04-25 17:08:00,67.3,37.2,30.21,South,180,2.7,5.6,33,0.00,,---,0.00,VWS V14.01,2013-04-25 22:08:00,
2013-04-25 17:13:00,67.1,37.1,30.21,SSW,202,6.0,6.0,33,0.00,,---,0.00,VWS V14.01,2013-04-25 22:13:00,
2013-04-25 17:18:00,66.9,36.9,30.21,SSW,202,6.3,6.3,33,0.00,,---,0.00,VWS V14.01,2013-04-25 22:18:00,
2013-04-25 17:23:00,66.0,36.9,30.21,WNW,292,5.4,6.3,34,0.00,,---,0.00,VWS V14.01,2013-04-25 22:23:00,
2013-04-25 17:28:00,65.7,36.6,30.21,SSW,202,6.3,6.5,34,0.00,,---,0.00,VWS V14.01,2013-04-25 22:28:00,
2013-04-25 17:33:00,65.1,36.1,30.21,SSE,158,8.7,8.7,34,0.00,,---,0.00,VWS V14.01,2013-04-25 22:33:00,
2013-04-25 17:38:00,64.8,35.8,30.21,South,180,2.0,6.0,34,0.00,,---,0.00,VWS V14.01,2013-04-25 22:38:00,
2013-04-25 17:43:00,64.6,36.3,30.21,SW,225,8.7,8.7,35,0.00,,---,0.00,VWS V14.01,2013-04-25 22:43:00,
2013-04-25 17:48:00,63.9,36.4,30.21,South,180,2.7,12.1,36,0.00,,---,0.00,VWS V14.01,2013-04-25 22:48:00,
2013-04-25 17:53:00,63.5,36.8,30.21,SW,225,4.3,7.4,37,0.00,,---,0.00,VWS V14.01,2013-04-25 22:53:00,
2013-04-25 17:58:00,63.3,36.6,30.21,SSW,202,5.4,5.4,37,0.00,,---,0.00,VWS V14.01,2013-04-25 22:58:00,
2013-04-25 18:03:00,63.1,37.1,30.21,SSW,202,3.8,6.5,38,0.00,,---,0.00,VWS V14.01,2013-04-25 23:03:00,
2013-04-25 18:08:00,62.6,36.7,30.21,South,180,6.9,7.4,38,0.00,,---,0.00,VWS V14.01,2013-04-25 23:08:00,
2013-04-25 18:13:00,62.2,36.3,30.24,South,180,4.7,8.7,38,0.00,,---,0.00,VWS V14.01,2013-04-25 23:13:00,
2013-04-25 18:18:00,62.1,36.8,30.24,SSW,202,5.6,5.6,39,0.00,,---,0.00,VWS V14.01,2013-04-25 23:18:00,
2013-04-25 18:23:00,61.9,38.0,30.24,SSW,202,4.9,7.6,41,0.00,,---,0.00,VWS V14.01,2013-04-25 23:23:00,
2013-04-25 18:28:00,61.7,37.8,30.21,SSE,158,2.2,3.8,41,0.00,,---,0.00,VWS V14.01,2013-04-25 23:28:00,
2013-04-25 18:33:00,61.7,38.4,30.21,SSW,202,4.9,4.9,42,0.00,,---,0.00,VWS V14.01,2013-04-25 23:33:00,
2013-04-25 18:38:00,61.5,38.2,30.21,SSW,202,3.4,3.8,42,0.00,,---,0.00,VWS V14.01,2013-04-25 23:38:00,
2013-04-25 18:43:00,61.5,38.2,30.18,SW,225,5.4,5.4,42,0.00,,---,0.00,VWS V14.01,2013-04-25 23:43:00,
2013-04-25 18:48:00,61.5,38.2,30.18,SSW,202,6.9,6.9,42,0.00,,---,0.00,VWS V14.01,2013-04-25 23:48:00,
2013-04-25 18:53:00,61.3,38.1,30.18,SW,225,3.1,7.8,42,0.00,,---,0.00,VWS V14.01,2013-04-25 23:53:00,
2013-04-25 18:58:00,61.2,38.5,30.18,SSW,202,3.4,6.7,43,0.00,,---,0.00,VWS V14.01,2013-04-25 23:58:00,
2013-04-25 19:03:00,61.0,38.3,30.18,South,180,5.4,11.2,43,0.00,,---,0.00,VWS V14.01,2013-04-26 00:03:00,
2013-04-25 19:08:00,61.0,38.9,30.18,South,180,6.0,8.1,44,0.00,,---,0.00,VWS V14.01,2013-04-26 00:08:00,
2013-04-25 19:13:00,60.8,38.8,30.15,SSE,158,9.6,9.6,44,0.00,,---,0.00,VWS V14.01,2013-04-26 00:13:00,
2013-04-25 19:18:00,60.6,38.6,30.15,SSE,158,2.9,7.6,44,0.00,,---,0.00,VWS V14.01,2013-04-26 00:18:00,
2013-04-25 19:23:00,60.4,39.0,30.15,SSE,158,5.4,5.6,45,0.00,,---,0.00,VWS V14.01,2013-04-26 00:23:00,
2013-04-25 19:28:00,60.4,39.0,30.12,South,180,4.3,10.5,45,0.00,,---,0.00,VWS V14.01,2013-04-26 00:28:00,
2013-04-25 19:33:00,60.4,39.6,30.12,South,180,6.0,8.7,46,0.00,,---,0.00,VWS V14.01,2013-04-26 00:33:00,
2013-04-25 19:38:00,60.3,39.4,30.12,SSW,202,3.4,5.6,46,0.00,,---,0.00,VWS V14.01,2013-04-26 00:38:00,
2013-04-25 19:43:00,60.1,39.2,30.15,SSW,202,10.1,11.9,46,0.00,,---,0.00,VWS V14.01,2013-04-26 00:43:00,
2013-04-25 19:48:00,59.9,39.1,30.15,SSW,202,13.0,13.0,46,0.00,,---,0.00,VWS V14.01,2013-04-26 00:48:00,
2013-04-25 19:53:00,59.7,38.9,30.15,SSW,202,5.8,5.8,46,0.00,,---,0.00,VWS V14.01,2013-04-26 00:53:00,
2013-04-25 19:58:00,59.7,38.9,30.15,SSE,158,11.9,11.9,46,0.00,,---,0.00,VWS V14.01,2013-04-26 00:58:00,
2013-04-25 20:03:00,59.7,38.9,30.15,SSW,202,8.7,11.0,46,0.00,,---,0.00,VWS V14.01,2013-04-26 01:03:00,
2013-04-25 20:08:00,59.7,38.9,30.15,SSW,202,8.1,8.1,46,0.00,,---,0.00,VWS V14.01,2013-04-26 01:08:00,
2013-04-25 20:13:00,59.5,39.3,30.15,SSE,158,7.2,7.2,47,0.00,,---,0.00,VWS V14.01,2013-04-26 01:13:00,
2013-04-25 20:18:00,59.5,39.3,30.15,SSW,202,5.8,9.4,47,0.00,,---,0.00,VWS V14.01,2013-04-26 01:18:00,
2013-04-25 20:23:00,59.5,39.3,30.15,SW,225,4.3,6.7,47,0.00,,---,0.00,VWS V14.01,2013-04-26 01:23:00,
2013-04-25 20:28:00,59.5,39.3,30.15,South,180,7.2,11.9,47,0.00,,---,0.00,VWS V14.01,2013-04-26 01:28:00,
2013-04-25 20:33:00,59.4,38.6,30.15,SSW,202,6.3,7.8,46,0.00,,---,0.00,VWS V14.01,2013-04-26 01:33:00,
2013-04-25 20:38:00,59.4,38.6,30.15,South,180,5.8,7.2,46,0.00,,---,0.00,VWS V14.01,2013-04-26 01:38:00,
2013-04-25 20:43:00,59.5,38.8,30.12,SSW,202,3.8,8.7,46,0.00,,---,0.00,VWS V14.01,2013-04-26 01:43:00,
2013-04-25 20:48:00,59.5,38.8,30.12,South,180,6.7,13.0,46,0.00,,---,0.00,VWS V14.01,2013-04-26 01:48:00,
2013-04-25 20:53:00,59.4,38.6,30.12,SSE,158,2.9,7.8,46,0.00,,---,0.00,VWS V14.01,2013-04-26 01:53:00,
2013-04-25 20:58:00,59.4,38.6,30.09,SSW,202,15.4,15.4,46,0.00,,---,0.00,VWS V14.01,2013-04-26 01:58:00,
2013-04-25 21:03:00,59.2,38.4,30.09,SSE,158,10.3,10.3,46,0.00,,---,0.00,VWS V14.01,2013-04-26 02:03:00,
2013-04-25 21:08:00,59.2,38.4,30.09,SSW,202,7.8,8.7,46,0.00,,---,0.00,VWS V14.01,2013-04-26 02:08:00,
2013-04-25 21:13:00,59.4,38.0,30.09,SSW,202,10.3,10.3,45,0.00,,---,0.00,VWS V14.01,2013-04-26 02:13:00,
2013-04-25 21:18:00,59.5,37.6,30.09,SSE,158,9.8,19.9,44,0.00,,---,0.00,VWS V14.01,2013-04-26 02:18:00,
2013-04-25 21:23:00,59.7,37.2,30.09,West,270,4.0,12.8,43,0.00,,---,0.00,VWS V14.01,2013-04-26 02:23:00,
2013-04-25 21:28:00,59.9,36.2,30.09,SSW,202,4.0,14.5,41,0.00,,---,0.00,VWS V14.01,2013-04-26 02:28:00,
2013-04-25 21:33:00,59.7,36.0,30.09,South,180,5.4,10.3,41,0.00,,---,0.00,VWS V14.01,2013-04-26 02:33:00,
2013-04-25 21:38:00,59.9,35.5,30.09,SSE,158,9.0,12.8,40,0.00,,---,0.00,VWS V14.01,2013-04-26 02:38:00,
2013-04-25 21:43:00,60.1,35.1,30.09,South,180,9.4,9.8,39,0.00,,---,0.00,VWS V14.01,2013-04-26 02:43:00,
2013-04-25 21:48:00,60.3,34.6,30.09,SSW,202,13.9,13.9,38,0.00,,---,0.00,VWS V14.01,2013-04-26 02:48:00,
2013-04-25 21:53:00,60.4,34.7,30.09,South,180,8.1,14.8,38,0.00,,---,0.00,VWS V14.01,2013-04-26 02:53:00,
2013-04-25 21:58:00,60.6,34.2,30.09,SSW,202,7.4,13.9,37,0.00,,---,0.00,VWS V14.01,2013-04-26 02:58:00,
2013-04-25 22:03:00,60.8,34.4,30.09,SSW,202,13.2,13.2,37,0.00,,---,0.00,VWS V14.01,2013-04-26 03:03:00,
2013-04-25 22:08:00,60.8,34.4,30.09,SE,135,3.6,9.0,37,0.00,,---,0.00,VWS V14.01,2013-04-26 03:08:00,
2013-04-25 22:13:00,60.8,34.4,30.12,South,180,6.0,9.4,37,0.00,,---,0.00,VWS V14.01,2013-04-26 03:13:00,
2013-04-25 22:18:00,60.8,33.7,30.12,South,180,8.5,16.1,36,0.00,,---,0.00,VWS V14.01,2013-04-26 03:18:00,
2013-04-25 22:23:00,60.6,34.2,30.12,South,180,6.0,8.5,37,0.00,,---,0.00,VWS V14.01,2013-04-26 03:23:00,
2013-04-25 22:28:00,60.6,34.2,30.09,SSW,202,4.7,7.4,37,0.00,,---,0.00,VWS V14.01,2013-04-26 03:28:00,
2013-04-25 22:33:00,60.4,34.1,30.09,South,180,8.7,10.7,37,0.00,,---,0.00,VWS V14.01,2013-04-26 03:33:00,
2013-04-25 22:38:00,60.3,33.9,30.09,SSW,202,8.5,9.8,37,0.00,,---,0.00,VWS V14.01,2013-04-26 03:38:00,
2013-04-25 22:43:00,60.1,33.8,30.12,SSE,158,10.7,10.7,37,0.00,,---,0.00,VWS V14.01,2013-04-26 03:43:00,
2013-04-25 22:48:00,60.1,33.8,30.12,SSW,202,4.0,8.1,37,0.00,,---,0.00,VWS V14.01,2013-04-26 03:48:00,
2013-04-25 22:53:00,59.7,33.4,30.12,South,180,12.1,12.1,37,0.00,,---,0.00,VWS V14.01,2013-04-26 03:53:00,
2013-04-25 22:58:00,59.5,33.3,30.12,South,180,6.5,6.5,37,0.00,,---,0.00,VWS V14.01,2013-04-26 03:58:00,
2013-04-25 23:01:00,59.5,33.3,30.12,SSE,158,4.7,17.9,37,0.00,,---,0.00,VWS V14.01,2013-04-26 04:01:00,
2013-04-25 23:02:00,59.4,33.1,30.12,SSW,202,8.1,8.1,37,0.00,,---,0.00,VWS V14.01,2013-04-26 04:02:00,
2013-04-25 23:03:00,59.4,33.1,30.12,South,180,7.8,12.1,37,0.00,,---,0.00,VWS V14.01,2013-04-26 04:03:00,
2013-04-25 23:08:00,59.4,33.1,30.12,South,180,4.0,8.7,37,0.00,,---,0.00,VWS V14.01,2013-04-26 04:08:00,
2013-04-25 23:12:00,59.2,33.0,30.12,South,180,11.9,11.9,37,0.00,,---,0.00,VWS V14.01,2013-04-26 04:12:00,
2013-04-25 23:17:00,59.2,33.0,30.12,South,180,4.9,6.9,37,0.00,,---,0.00,VWS V14.01,2013-04-26 04:17:00,
2013-04-25 23:22:00,59.0,32.8,30.12,South,180,4.3,8.5,37,0.00,,---,0.00,VWS V14.01,2013-04-26 04:22:00,
2013-04-25 23:27:00,58.8,32.6,30.15,South,180,5.6,11.0,37,0.00,,---,0.00,VWS V14.01,2013-04-26 04:27:00,
2013-04-25 23:32:00,58.8,32.6,30.15,SSW,202,3.1,8.1,37,0.00,,---,0.00,VWS V14.01,2013-04-26 04:32:00,
2013-04-25 23:37:00,58.8,32.6,30.15,South,180,15.2,15.2,37,0.00,,---,0.00,VWS V14.01,2013-04-26 04:37:00,
2013-04-25 23:42:00,58.8,32.6,30.12,SSW,202,2.5,7.8,37,0.00,,---,0.00,VWS V14.01,2013-04-26 04:42:00,
2013-04-25 23:47:00,58.8,32.6,30.12,South,180,11.0,11.0,37,0.00,,---,0.00,VWS V14.01,2013-04-26 04:47:00,
2013-04-25 23:52:00,58.8,32.6,30.12,SSE,158,8.7,8.7,37,0.00,,---,0.00,VWS V14.01,2013-04-26 04:52:00,
2013-04-25 23:57:00,58.6,33.1,30.18,South,180,0.9,12.5,38,0.00,,---,0.00,VWS V14.01,2013-04-26 04:57:00,